Location: Unspecified
(48.2082°N, 0.0000°E)
Time: 08:41:36
(UTC+00:00)

Altair - Pass Details

Date: 19 June 2019
Orbit: 1501 x 1683 km, 47.2° (Epoch: 24 July)

Event Time Altitude Azimuth Distance (km) Brightness Sun altitude
Rises 17:42:02 0° 165° (SSE) 4,685 9.8 20.4°
Reaches altitude 10° 17:48:57 10° 130° (SE) 3,760 9.1 19.2°
Maximum altitude 17:50:32 11° 120° (ESE) 3,734 9.0 19.0°
Drops below altitude 10° 17:52:07 10° 111° (ESE) 3,787 9.0 18.7°
Sets 17:59:12 0° 76° (ENE) 4,835 9.6 17.6°
